Бета Агро 19 ООД - Т/Х сензор, 03.04.2022 Measurements

Back to Overview

Timestamp Temperature Humidity
5/4/2026 5:41:27 PM 18,0 C 47.7%
5/4/2026 5:34:23 PM 18,0 C 48.5%
5/4/2026 5:27:21 PM 17,9 C 48.5%
5/4/2026 5:20:16 PM 18,5 C 46.9%
5/4/2026 5:13:12 PM 18,8 C 46.2%
5/4/2026 5:06:08 PM 18,4 C 47.7%
5/4/2026 4:59:06 PM 18,6 C 47.3%
5/4/2026 4:52:03 PM 18,6 C 46.9%
5/4/2026 4:44:59 PM 19,0 C 46.2%
5/4/2026 4:37:55 PM 19,0 C 46.5%
5/4/2026 4:30:53 PM 19,3 C 46.2%
5/4/2026 4:23:49 PM 19,0 C 46.5%
5/4/2026 4:16:44 PM 19,2 C 45.4%
5/4/2026 4:09:42 PM 19,2 C 46.5%
5/4/2026 4:02:39 PM 18,9 C 46.2%
5/4/2026 3:56:23 PM 19,6 C 44.6%
5/4/2026 3:49:21 PM 19,2 C 45.8%
5/4/2026 3:42:18 PM 19,3 C 46.5%
5/4/2026 3:38:39 PM 18,6 C 46.5%
5/4/2026 3:31:36 PM 18,0 C 47.3%
5/4/2026 3:24:32 PM 18,3 C 46.9%
5/4/2026 3:17:29 PM 18,1 C 46.2%
5/4/2026 3:10:26 PM 18,5 C 46.2%
5/4/2026 3:03:22 PM 18,8 C 44.6%
5/4/2026 2:56:19 PM 18,9 C 44.2%
5/4/2026 2:49:15 PM 18,7 C 44.6%
5/4/2026 2:42:11 PM 19,3 C 43.0%
5/4/2026 2:35:09 PM 19,2 C 43.4%
5/4/2026 2:28:04 PM 19,5 C 41.9%
5/4/2026 2:21:01 PM 19,8 C 42.2%
5/4/2026 2:13:59 PM 19,6 C 41.1%
5/4/2026 2:10:51 PM 19,3 C 44.2%
5/4/2026 2:03:49 PM 18,9 C 41.1%
5/4/2026 1:56:47 PM 18,8 C 43.0%
5/4/2026 1:51:31 PM 18,9 C 39.5%
5/4/2026 1:44:28 PM 18,5 C 42.2%
5/4/2026 1:40:20 PM 18,8 C 38.3%
5/4/2026 1:36:42 PM 19,5 C 39.5%
5/4/2026 1:29:40 PM 18,9 C 39.9%
5/4/2026 1:22:37 PM 18,7 C 41.5%
5/4/2026 1:20:58 PM 18,3 C 44.6%
5/4/2026 1:13:55 PM 18,2 C 39.9%
5/4/2026 1:11:53 PM 18,5 C 39.9%
5/4/2026 1:09:51 PM 18,5 C 45.0%
5/4/2026 1:05:17 PM 18,1 C 41.9%
5/4/2026 1:00:45 PM 18,3 C 38.7%
5/4/2026 12:54:48 PM 18,2 C 41.9%
5/4/2026 12:49:28 PM 18,3 C 38.7%
5/4/2026 12:44:44 PM 17,7 C 41.9%
5/4/2026 12:37:41 PM 17,5 C 41.9%
5/4/2026 12:34:51 PM 18,1 C 38.7%
5/4/2026 12:29:37 PM 18,2 C 41.9%
5/4/2026 12:27:11 PM 17,8 C 45.0%
5/4/2026 12:24:28 PM 17,1 C 46.2%
5/4/2026 12:19:01 PM 16,6 C 43.0%
5/4/2026 12:11:59 PM 16,7 C 43.4%
5/4/2026 12:07:39 PM 17,3 C 40.3%
5/4/2026 12:03:36 PM 17,4 C 43.4%
5/4/2026 12:02:35 PM 17,4 C 46.5%
5/4/2026 11:56:14 AM 16,9 C 43.0%
5/4/2026 11:49:10 AM 16,7 C 43.0%
5/4/2026 11:47:08 AM 16,3 C 44.2%
5/4/2026 11:44:06 AM 16,2 C 41.1%
5/4/2026 11:40:21 AM 16,9 C 41.1%
5/4/2026 11:39:21 AM 17,0 C 44.2%
5/4/2026 11:37:13 AM 16,4 C 45.0%
5/4/2026 11:32:59 AM 16,6 C 41.1%
5/4/2026 11:29:02 AM 17,3 C 41.5%
5/4/2026 11:21:58 AM 17,5 C 43.4%
5/4/2026 11:20:27 AM 17,3 C 46.5%
5/4/2026 11:16:31 AM 16,8 C 43.0%
5/4/2026 11:09:57 AM 16,1 C 41.9%
5/4/2026 11:02:55 AM 16,7 C 42.6%
5/4/2026 11:02:41 AM 16,7 C 46.5%
5/4/2026 10:57:46 AM 16,6 C 41.9%
5/4/2026 10:50:43 AM 17,0 C 41.5%
5/4/2026 10:48:35 AM 16,7 C 45.4%
5/4/2026 10:44:56 AM 17,1 C 41.1%
5/4/2026 10:43:07 AM 16,9 C 44.2%
5/4/2026 10:41:35 AM 17,0 C 41.1%
5/4/2026 10:37:50 AM 16,6 C 44.2%
5/4/2026 10:30:47 AM 16,7 C 42.2%
5/4/2026 10:28:45 AM 16,5 C 46.2%
5/4/2026 10:26:44 AM 16,4 C 45.0%
5/4/2026 10:24:41 AM 16,3 C 46.5%
5/4/2026 10:19:14 AM 16,2 C 43.4%
5/4/2026 10:17:13 AM 15,8 C 46.9%
5/4/2026 10:11:53 AM 15,9 C 43.4%
5/4/2026 10:08:45 AM 16,4 C 40.3%
5/4/2026 10:02:31 AM 16,5 C 43.4%
5/4/2026 10:00:28 AM 16,5 C 41.1%
5/4/2026 9:58:28 AM 16,6 C 41.5%
5/4/2026 9:56:25 AM 16,7 C 40.7%
5/4/2026 9:54:23 AM 16,4 C 44.2%
5/4/2026 9:52:23 AM 16,4 C 41.1%
5/4/2026 9:48:15 AM 15,7 C 44.6%
5/4/2026 9:42:35 AM 16,1 C 41.5%
5/4/2026 9:40:33 AM 16,3 C 44.6%
5/4/2026 9:38:32 AM 16,4 C 40.3%
5/4/2026 9:35:30 AM 16,3 C 43.4%
5/4/2026 9:31:04 AM 16,7 C 40.3%
5/4/2026 9:27:38 AM 16,0 C 42.6%
5/4/2026 9:22:11 AM 16,0 C 39.5%
5/4/2026 9:15:15 AM 16,7 C 41.1%
5/4/2026 9:13:07 AM 17,3 C 38.0%
5/4/2026 9:08:23 AM 17,1 C 41.1%
5/4/2026 9:06:20 AM 17,1 C 38.0%
5/4/2026 8:59:22 AM 16,8 C 41.1%
5/4/2026 8:55:38 AM 17,0 C 38.0%
5/4/2026 8:52:42 AM 16,8 C 41.5%
5/4/2026 8:47:09 AM 16,9 C 38.3%
5/4/2026 8:45:43 AM 16,7 C 41.5%
5/4/2026 8:44:48 AM 16,6 C 38.3%
5/4/2026 8:37:46 AM 16,9 C 39.1%
5/4/2026 8:30:45 AM 16,6 C 40.3%
5/4/2026 8:23:42 AM 16,6 C 40.7%
5/4/2026 8:16:39 AM 16,4 C 39.1%
5/4/2026 8:09:38 AM 15,9 C 41.1%
5/4/2026 8:02:35 AM 15,6 C 39.9%
5/4/2026 7:55:31 AM 15,2 C 41.5%
5/4/2026 7:48:29 AM 14,9 C 42.2%
5/4/2026 7:41:25 AM 14,6 C 43.8%
5/4/2026 7:39:23 AM 14,6 C 41.5%
5/4/2026 7:34:32 AM 14,4 C 44.6%
5/4/2026 7:29:07 AM 13,7 C 43.8%
5/4/2026 7:27:05 AM 13,5 C 46.9%
5/4/2026 7:22:21 AM 12,9 C 47.7%
5/4/2026 7:18:19 AM 12,2 C 47.3%
5/4/2026 7:15:30 AM 11,5 C 48.1%
5/4/2026 7:12:46 AM 11,1 C 51.2%
5/4/2026 7:10:45 AM 10,3 C 52.8%
5/4/2026 7:08:43 AM 9,0 C 57.1%
5/4/2026 7:07:41 AM 8,1 C 59.8%
5/4/2026 7:06:58 AM 7,4 C 61.4%
5/4/2026 7:06:09 AM 6,7 C 63.0%
5/4/2026 7:04:19 AM 5,9 C 64.9%
5/4/2026 6:57:16 AM 5,8 C 64.1%
5/4/2026 6:50:12 AM 5,5 C 65.3%
5/4/2026 6:43:10 AM 5,3 C 66.1%
5/4/2026 6:36:06 AM 5,0 C 68.0%
5/4/2026 6:29:03 AM 4,9 C 68.4%
5/4/2026 6:21:59 AM 4,9 C 68.8%
5/4/2026 6:14:56 AM 4,8 C 69.2%
5/4/2026 6:07:51 AM 4,7 C 70.0%
5/4/2026 6:00:47 AM 4,7 C 69.6%
5/4/2026 5:53:43 AM 4,6 C 70.4%
5/4/2026 5:46:39 AM 4,6 C 70.4%
5/4/2026 5:39:36 AM 4,6 C 70.8%
5/4/2026 5:32:33 AM 4,8 C 70.4%
5/4/2026 5:25:30 AM 4,7 C 70.4%
5/4/2026 5:18:28 AM 4,6 C 71.2%
5/4/2026 5:11:24 AM 4,7 C 70.8%
5/4/2026 5:04:22 AM 4,6 C 71.5%
5/4/2026 4:57:20 AM 4,6 C 71.2%
5/4/2026 4:50:16 AM 4,6 C 71.2%
5/4/2026 4:43:14 AM 4,5 C 71.5%
5/4/2026 4:36:09 AM 4,6 C 71.5%
5/4/2026 4:29:07 AM 4,6 C 71.2%
5/4/2026 4:22:03 AM 4,7 C 71.2%
5/4/2026 4:15:01 AM 4,7 C 71.2%
5/4/2026 4:07:58 AM 4,7 C 71.5%
5/4/2026 4:00:56 AM 4,7 C 71.2%
5/4/2026 3:53:51 AM 4,7 C 71.5%
5/4/2026 3:46:49 AM 4,7 C 71.5%
5/4/2026 3:39:46 AM 4,7 C 71.5%
5/4/2026 3:32:43 AM 4,7 C 71.5%
5/4/2026 3:25:39 AM 4,7 C 71.5%
5/4/2026 3:18:36 AM 4,7 C 71.9%
5/4/2026 3:11:33 AM 4,7 C 72.3%
5/4/2026 3:04:28 AM 4,6 C 72.3%
5/4/2026 2:57:27 AM 4,7 C 72.3%
5/4/2026 2:50:22 AM 4,7 C 71.9%
5/4/2026 2:43:21 AM 4,7 C 71.9%
5/4/2026 2:36:19 AM 4,6 C 72.3%
5/4/2026 2:29:16 AM 4,6 C 72.3%
5/4/2026 2:22:12 AM 4,6 C 73.1%
5/4/2026 2:15:09 AM 4,6 C 72.3%
5/4/2026 2:08:06 AM 4,6 C 72.7%
5/4/2026 2:01:04 AM 4,6 C 73.1%
5/4/2026 1:54:02 AM 4,6 C 72.7%
5/4/2026 1:47:00 AM 4,7 C 72.3%
5/4/2026 1:39:57 AM 4,6 C 73.1%
5/4/2026 1:32:55 AM 4,6 C 73.1%
5/4/2026 1:25:52 AM 4,7 C 73.1%
5/4/2026 1:18:48 AM 4,8 C 73.1%
5/4/2026 1:11:44 AM 4,7 C 73.1%
5/4/2026 1:04:40 AM 4,8 C 73.1%
5/4/2026 12:57:38 AM 4,8 C 72.7%
5/4/2026 12:50:36 AM 4,9 C 72.7%
5/4/2026 12:43:32 AM 4,9 C 72.3%
5/4/2026 12:36:30 AM 4,9 C 72.7%
5/4/2026 12:29:27 AM 4,9 C 73.1%
5/4/2026 12:22:26 AM 4,8 C 73.5%
5/4/2026 12:15:21 AM 4,9 C 72.7%
5/4/2026 12:08:20 AM 4,9 C 72.7%
5/4/2026 12:01:17 AM 4,9 C 72.7%